Regional Weather Roundup
Issued by NWS

Home | Current Version | Previous Version | Text Only | Print | Product List | Glossary On
Versions: 1 2 3 4 5 6 7 8 9 10 11 12 13 14 15 16 17 18 19 20 21 22 23 24 25 26 27 28 29 30 31 32 33 34 35 36 37 38 39 40 41 42 43 44 45 46 47 48 49 50
000
ASUS44 KJAN 061110
RWRMS

MISSISSIPPI HOURLY WEATHER ROUNDUP
NATIONAL WEATHER SERVICE JACKSON MS
600 AM CDT WED MAY 06 2015

NOTE: "FAIR: INDICATES FEW OR NO CLOUDS BELOW 12,000 FEET WITH NO
SIGNIFICANT WEATHER AND/OR OBSTRUCTIONS TO VISIBILITY.

MSZ001>002-007>008-010>013-018>021-025>028-034>036-061200-
NORTHWEST MISSISSIPPI

CITY           SKY/WX    TMP DP  RH WIND       PRES   REMARKS
CLARKSDALE       N/A     61  57  88 CALM      30.13R
CLEVELAND      FAIR      63  60  88 SE3       30.11R
GREENWOOD      CLEAR     61  54  77 E3        30.12R
GREENVILLE     CLEAR     62  57  83 E3        30.10R
OLIVE BRANCH   CLEAR     59  57  94 SE3       30.14R
OXFORD         FAIR      59  55  88 SE6       30.16R
TUNICA         SUNNY     59  55  88 CALM      30.13R
$$

MSZ003>006-009-014>017-022>024-029>033-037>039-061200-
NORTHEAST MISSISSIPPI

CITY           SKY/WX    TMP DP  RH WIND       PRES   REMARKS
COLUMBUS AFB   CLEAR     55  49  81 CALM      30.14R
CORINTH        FAIR      55  54  94 CALM      30.16R FOG
GOLDN TRIANGLE CLEAR     61  54  77 E5        30.13S
STARKVILLE     FAIR      54  52  94 CALM      30.14R
TUPELO         CLEAR     56  53  90 NE6       30.15S
$$

MSZ040-058-061200-
CENTRAL MISSISSIPPI

CITY           SKY/WX    TMP DP  RH WIND       PRES   REMARKS
JACKSON INTL   CLEAR     59  56  89 CALM      30.10R
JACKSON HAWKNS CLEAR     59  57  93 MISG      30.11R
MERIDIAN KEY   CLEAR     53  51  93 CALM      30.12S
MERIDIAN NAS   CLEAR     54  51  90 CALM      30.13S
RAYMOND        HAZE      57  52  82 CALM      30.10R VSB 1/4
VICKSBURG      CLEAR     57  55  93 CALM      30.10R
$$

MSZ059>079-061200-
SOUTH MISSISSIPPI

CITY           SKY/WX    TMP DP  RH WIND       PRES   REMARKS
BROOKHAVEN     FAIR      57  57 100 CALM      30.10S
HATTIESBURG    CLEAR     56  55  97 CALM      30.11R
MCCOMB         CLEAR     61  59  93 E3        30.08S
NATCHEZ        CLEAR     57  54  88 CALM      30.09R
PINE BELT      CLEAR     57  54  88 NE3       30.11R
$$

MSZ080>082-061200-
COASTAL MISSISSIPPI

CITY           SKY/WX    TMP DP  RH WIND       PRES   REMARKS
BILOXI         PTCLDY    67  67 100 E7        30.07R
PASCAGOULA     CLEAR     64  62  93 E3        30.08R
GULFPORT       MOCLDY    66  63  90 NE5       30.07R
$$


USA.gov is the U.S. government's official web portal to all federal, state and local government web resources and services.